Temperature
9 9 9 9 9 9 8 8 8 7 8 8 8 7 7 7 6 6 6 5 4 4 3 3 2 2 1 1 0 0 -0 -0 -1 -1 -1 -1 -1 -1
9 9 9 9 9 9 8 8 8 7 7 7 7 7 6 6 6 5 5 4 4 3 3 2 2 1 1 0 -0 -1 -1 -1 -1 -2 -2 -2 -2 -2
9 9 9 9 9 8 8 8 8 7 7 7 7 6 6 5 5 5 4 4 3 3 2 1 1 0 -0 -0 -1 -1 -2 -2 -2 -3 -3 -3 -3 -3
9 9 9 9 9 8 8 8 7 7 7 6 6 6 5 5 4 4 3 3 2 2 1 1 0 -0 -1 -1 -2 -2 -2 -3 -3 -3 -4 -4 -4 -4
9 9 9 9 8 8 8 7 7 7 6 6 6 5 5 4 4 3 3 2 2 1 1 0 -0 -1 -1 -2 -2 -2 -3 -3 -4 -4 -4 -4 -4 -4
9 9 9 8 8 8 7 7 7 6 6 5 5 4 4 3 3 2 2 2 1 1 0 -0 -1 -2 -2 -2 -3 -3 -3 -4 -4 -4 -5 -5 -5 -5
9 9 8 8 8 7 7 7 6 6 5 5 5 4 3 3 2 1 1 0 0 -0 -1 -1 -2 -2 -2 -3 -3 -4 -4 -4 -5 -5 -5 -5 -5 -6
9 8 8 8 7 7 7 6 6 5 5 4 4 3 2 2 1 0 -0 -1 -1 -1 -2 -2 -2 -3 -3 -3 -4 -4 -5 -5 -5 -6 -6 -6 -6 -6
8 8 8 7 7 7 6 6 5 5 4 3 3 2 1 1 0 -0 -1 -1 -2 -2 -3 -3 -3 -3 -4 -4 -4 -5 -6 -6 -6 -6 -6 -6 -7 -7
8 8 7 7 7 6 6 5 5 4 3 3 2 1 0 -0 -1 -1 -2 -2 -2 -3 -4 -4 -4 -4 -4 -4 -5 -6 -6 -6 -7 -7 -7 -7 -7 -7
8 7 7 6 6 6 5 5 4 3 3 2 1 1 -0 -1 -1 -2 -2 -3 -3 -4 -4 -5 -5 -5 -5 -5 -6 -6 -7 -7 -7 -7 -7 -7 -8 -7
7 7 6 6 5 5 4 4 3 3 2 1 1 0 -1 -1 -2 -3 -3 -4 -5 -5 -6 -6 -6 -7 -7 -6 -6 -7 -7 -7 -7 -8 -8 -8 -8 -8
7 6 6 5 5 4 4 3 3 2 1 1 0 -1 -1 -2 -3 -3 -4 -5 -5 -6 -7 -7 -7 -8 -8 -8 -7 -7 -8 -8 -8 -8 -8 -8 -8 -8
6 6 5 5 4 4 3 2 2 1 1 0 -1 -1 -2 -3 -3 -4 -5 -5 -6 -6 -7 -8 -8 -8 -9 -9 -8 -8 -8 -8 -8 -8 -8 -8 -8 -8
6 5 4 4 3 3 2 2 1 1 -0 -1 -1 -2 -3 -4 -4 -5 -5 -6 -6 -7 -7 -8 -8 -8 -9 -9 -9 -9 -9 -8 -8 -8 -8 -8 -8 -8
5 4 4 3 3 2 2 1 0 -0 -1 -2 -2 -3 -4 -4 -5 -5 -6 -6 -6 -7 -7 -8 -8 -8 -8 -9 -9 -9 -9 -9 -9 -8 -8 -8 -8 -8
4 4 3 3 2 2 1 0 -0 -1 -2 -2 -3 -4 -4 -5 -5 -6 -6 -7 -7 -8 -8 -8 -8 -8 -8 -9 -9 -9 -9 -9 -9 -9 -8 -8 -7 -8
4 3 3 2 2 1 0 -0 -1 -2 -2 -3 -4 -4 -5 -5 -6 -7 -7 -8 -8 -8 -9 -9 -8 -8 -8 -8 -9 -9 -9 -9 -9 -9 -9 -8 -7 -7
3 3 2 2 1 0 -0 -1 -2 -2 -3 -4 -4 -5 -5 -6 -7 -7 -8 -8 -8 -9 -9 -9 -9 -10 -10 -10 -9 -9 -10 -9 -9 -8 -8 -9 -8 -8
2 2 1 1 0 -0 -1 -2 -2 -3 -4 -4 -5 -6 -6 -7 -7 -8 -8 -8 -9 -9 -9 -9 -10 -10 -11 -11 -10 -9 -9 -10 -9 -9 -8 -8 -8 -7
2 1 1 0 -0 -1 -2 -2 -3 -4 -4 -5 -5 -6 -7 -7 -8 -8 -8 -9 -9 -9 -9 -10 -10 -10 -10 -10 -10 -9 -9 -9 -9 -9 -9 -9 -8 -7
1 1 0 -0 -1 -2 -2 -3 -3 -4 -5 -5 -6 -6 -7 -7 -8 -8 -9 -9 -9 -10 -10 -10 -10 -10 -10 -10 -10 -9 -9 -8 -8 -9 -9 -9 -10 -9
1 0 -0 -1 -2 -2 -3 -3 -4 -5 -5 -6 -6 -7 -7 -8 -8 -9 -9 -9 -10 -10 -10 -10 -10 -10 -10 -10 -10 -10 -9 -9 -8 -8 -8 -8 -8 -8
Wind_Speed
10 10 7 6 5 5 4 5 5 3 4 4 3 2 5 6 7 7 8 8 9 9 10 11 12 13 15 16 17 18 19 19 20 21 21 22 22 22
8 10 9 6 5 5 4 4 4 5 4 3 3 2 1 3 5 6 7 7 8 10 11 12 13 14 15 16 17 18 19 19 20 21 21 22 22 22
10 10 10 7 6 5 4 4 4 4 5 4 1 1 1 1 2 4 5 5 7 9 11 12 14 15 16 17 18 18 19 19 20 20 21 21 22 22
11 10 10 7 7 5 5 5 4 4 4 5 2 1 1 1 2 2 3 4 6 9 11 13 14 15 16 17 17 17 17 18 19 20 20 21 21 22
11 11 10 8 8 6 5 5 4 3 3 3 2 1 1 1 1 2 3 4 6 8 10 11 13 15 16 16 16 17 17 18 19 20 20 20 20 21
9 9 9 10 9 7 6 5 4 3 2 2 2 1 1 1 0 2 3 3 4 6 8 10 13 14 15 16 16 17 17 18 19 19 19 19 20 20
8 7 7 8 9 7 6 5 5 4 3 2 2 1 1 1 1 1 3 4 4 2 4 6 8 8 11 14 15 16 17 18 18 19 19 19 19 19
8 6 6 6 7 8 7 8 7 5 4 3 2 2 3 2 1 1 1 2 4 2 3 5 4 5 8 10 14 16 17 17 18 18 18 19 19 19
8 7 5 5 7 6 6 6 5 4 5 4 3 3 3 2 2 1 2 2 4 3 2 4 3 5 8 12 15 15 16 17 18 18 18 19 19 19
8 8 8 7 7 8 7 5 3 2 3 2 3 2 2 2 2 1 2 2 3 3 1 3 4 5 7 10 13 14 17 18 18 18 19 19 19 19
7 8 8 8 10 12 9 7 4 2 5 6 5 4 4 4 4 3 2 2 3 3 1 2 3 5 5 4 10 14 17 18 18 19 19 19 20 19
6 7 9 10 11 12 8 7 6 3 4 4 5 5 5 5 5 3 1 1 1 3 2 3 3 4 5 4 5 10 13 16 18 18 19 19 20 14
7 6 6 11 12 11 9 6 6 6 5 4 3 3 3 3 3 3 1 1 1 3 2 2 3 3 3 5 5 5 7 9 12 13 16 19 20 15
8 6 7 13 12 11 8 8 10 9 5 4 3 2 1 2 2 3 3 3 2 4 5 3 2 3 4 5 6 5 6 8 7 6 10 17 18 18
9 12 13 14 12 9 10 11 9 5 4 3 2 1 1 1 2 3 4 5 5 5 5 5 3 4 4 5 6 6 6 5 5 6 8 9 8 9
10 13 15 15 11 10 9 6 4 4 4 3 2 1 1 1 1 2 2 3 3 4 6 9 8 5 4 6 6 7 6 5 7 9 9 9 9 10
12 8 6 6 6 5 5 5 4 3 3 2 2 1 1 2 2 2 2 2 2 4 5 5 8 9 7 6 5 6 7 7 7 8 10 11 9 8
12 8 7 6 6 5 5 4 3 3 2 2 2 1 1 1 2 2 2 2 3 3 4 4 5 5 4 4 6 6 6 6 8 9 8 9 10 9
9 8 7 6 6 5 4 4 2 2 2 2 2 1 1 1 1 2 3 3 3 4 4 4 3 4 6 7 6 5 6 9 9 9 8 8 10 12
7 7 7 6 6 5 4 4 3 3 2 2 1 1 1 1 1 2 2 3 3 4 4 4 3 4 4 5 5 7 12 9 8 9 9 9 8 12
6 6 6 6 5 5 4 4 4 3 2 2 1 1 0 0 1 2 2 5 4 3 5 5 6 10 4 3 5 6 7 13 12 9 9 8 7 5
7 7 6 6 5 5 5 4 4 3 2 2 1 0 0 0 1 2 2 3 3 3 4 5 6 5 3 3 6 8 8 9 14 15 11 8 6 6
7 7 6 6 5 5 4 4 4 3 2 2 1 0 0 0 1 2 2 3 3 4 5 5 5 4 3 4 5 6 9 10 7 8 7 13 16 15
Wind_Direction
202 201 203 205 195 190 175 169 175 218 254 255 258 263 239 234 241 237 240 253 267 277 286 293 299 304 306 308 309 311 311 311 311 310 309 308 308 308
197 199 207 205 199 192 187 185 184 192 231 242 235 262 257 247 250 239 244 259 272 281 289 296 302 304 305 308 309 309 310 310 311 311 310 310 309 309
195 199 207 199 197 197 188 186 193 186 226 255 242 267 221 264 289 264 259 265 278 285 294 300 303 305 306 308 309 309 311 312 313 312 312 311 311 311
197 197 205 195 196 194 190 195 200 193 204 242 252 256 250 274 284 280 288 286 287 291 300 303 305 307 308 309 311 313 315 316 315 315 314 313 313 312
196 198 200 190 199 196 192 196 196 185 187 205 237 233 263 322 320 310 315 305 302 299 304 306 309 312 313 313 313 315 316 316 316 315 315 314 315 315
192 194 194 193 197 192 192 194 180 173 172 184 213 221 241 299 323 300 308 308 303 306 310 311 312 314 315 314 313 316 317 317 318 317 317 317 316 315
183 185 187 184 185 185 184 183 172 175 174 187 210 225 244 290 280 277 284 304 296 294 312 307 307 306 311 314 314 317 319 320 321 321 320 319 319 317
176 171 167 170 168 165 164 163 163 171 184 187 201 223 245 243 245 270 270 312 298 299 308 296 300 297 307 308 314 320 321 322 323 325 325 324 321 319
169 162 153 152 147 145 139 131 135 142 161 171 192 220 228 226 202 236 248 260 267 290 314 288 301 299 308 311 317 323 329 331 330 328 327 326 324 323
160 158 154 151 150 143 134 127 118 114 136 142 171 199 210 199 171 193 238 288 291 298 323 284 301 304 310 307 313 324 330 331 330 329 328 327 325 325
142 144 148 149 148 142 137 134 120 92 86 101 99 91 79 74 87 78 38 9 316 298 348 310 304 310 299 294 314 326 330 330 329 330 330 329 327 327
129 135 142 143 145 143 145 146 147 145 113 89 73 65 59 58 62 76 115 30 318 294 316 322 303 326 312 295 303 313 317 322 326 327 329 330 329 328
140 139 140 139 138 140 138 145 145 134 118 107 89 65 48 41 31 29 51 151 232 266 290 314 294 299 281 299 301 296 303 310 315 317 324 328 328 327
143 139 134 134 133 132 127 121 118 113 106 100 92 71 39 9 349 348 351 338 276 258 276 284 269 283 293 297 295 300 305 303 305 306 314 322 323 323
131 132 129 127 122 119 117 117 115 110 111 109 112 83 355 334 351 353 353 352 343 327 317 306 284 283 272 276 290 296 307 303 305 313 314 314 309 310
119 120 117 113 106 105 106 101 97 115 120 121 113 61 19 14 6 355 348 349 346 325 319 321 311 293 279 277 280 289 294 296 311 316 316 309 303 299
123 111 107 111 104 99 97 95 92 96 94 95 100 84 49 20 355 353 359 358 342 320 320 322 323 310 281 271 283 285 296 301 305 314 318 316 308 300
125 128 129 129 130 130 127 115 104 107 104 105 102 95 67 20 350 348 355 352 328 313 311 315 332 339 336 303 253 276 291 300 309 312 310 311 310 309
123 132 136 138 138 136 134 132 133 123 113 109 105 92 59 10 354 347 347 340 328 316 311 315 334 345 338 327 305 285 297 310 313 313 308 303 301 303
127 137 140 141 141 141 140 133 126 115 105 103 98 86 64 18 351 343 339 328 322 319 320 323 324 322 309 303 299 297 305 305 308 311 310 306 292 292
133 134 137 139 140 139 136 131 128 127 120 114 110 100 78 35 340 328 326 334 338 321 320 314 302 318 302 300 305 302 300 311 313 306 307 310 311 306
135 134 135 135 137 137 134 132 127 127 126 126 146 170 256 323 310 316 320 320 316 306 299 299 309 323 327 310 309 307 309 315 322 324 318 311 312 315
137 135 134 135 135 135 136 138 139 144 150 156 167 189 203 305 303 304 305 308 313 316 316 318 324 326 307 292 299 303 309 318 321 327 318 326 328 317
Height
1511 1514 1515 1517 1518 1519 1520 1520 1521 1519 1518 1517 1517 1516 1515 1514 1513 1511 1509 1507 1505 1502 1500 1497 1495 1492 1489 1485 1482 1479 1475 1472 1468 1465 1462 1459 1456 1453
1506 1509 1511 1512 1514 1515 1515 1516 1516 1516 1514 1513 1513 1512 1511 1509 1508 1506 1504 1502 1500 1497 1495 1492 1489 1486 1483 1480 1477 1473 1470 1466 1462 1459 1456 1453 1450 1447
1501 1503 1506 1508 1509 1510 1511 1511 1511 1511 1510 1509 1509 1507 1506 1504 1503 1501 1499 1497 1495 1492 1490 1487 1484 1481 1478 1474 1471 1467 1464 1460 1457 1453 1450 1447 1444 1441
1495 1498 1500 1503 1504 1505 1506 1506 1506 1506 1506 1504 1504 1503 1501 1500 1498 1496 1494 1492 1489 1487 1485 1482 1478 1475 1472 1469 1465 1462 1458 1454 1451 1448 1444 1441 1438 1435
1491 1493 1495 1498 1499 1500 1501 1501 1501 1501 1501 1500 1499 1498 1496 1495 1493 1491 1489 1487 1484 1482 1479 1476 1473 1469 1466 1463 1459 1456 1452 1449 1445 1442 1439 1436 1432 1429
1486 1489 1491 1492 1494 1495 1496 1496 1497 1497 1496 1495 1494 1493 1491 1489 1488 1486 1483 1482 1479 1477 1474 1471 1468 1464 1461 1457 1454 1450 1447 1443 1440 1437 1434 1430 1427 1424
1482 1484 1486 1488 1489 1491 1491 1492 1492 1492 1491 1490 1489 1488 1486 1485 1483 1481 1478 1476 1474 1471 1468 1466 1463 1459 1456 1452 1449 1445 1442 1438 1435 1432 1428 1425 1422 1419
1477 1479 1482 1484 1485 1486 1487 1487 1488 1488 1487 1486 1485 1484 1482 1481 1479 1477 1475 1471 1468 1467 1463 1461 1458 1454 1451 1447 1444 1440 1437 1434 1430 1427 1423 1420 1417 1414
1473 1475 1477 1479 1481 1482 1483 1483 1484 1483 1483 1483 1481 1480 1478 1477 1475 1473 1471 1468 1465 1462 1458 1455 1453 1450 1447 1443 1439 1436 1433 1429 1425 1422 1419 1416 1412 1409
1469 1471 1474 1476 1477 1478 1479 1479 1479 1479 1479 1478 1477 1476 1475 1473 1471 1470 1467 1465 1462 1459 1455 1451 1447 1445 1442 1439 1435 1432 1428 1425 1421 1418 1415 1411 1408 1404
1465 1468 1470 1472 1473 1474 1475 1476 1476 1476 1475 1474 1474 1473 1471 1470 1468 1466 1463 1461 1457 1455 1452 1448 1444 1440 1437 1435 1432 1428 1425 1421 1417 1414 1410 1407 1403 1400
1462 1464 1467 1468 1470 1471 1472 1472 1472 1472 1472 1471 1470 1469 1468 1466 1464 1463 1460 1457 1454 1451 1449 1446 1442 1438 1432 1429 1428 1425 1421 1417 1413 1410 1406 1402 1399 1395
1459 1461 1463 1465 1467 1468 1469 1469 1469 1469 1469 1468 1467 1466 1465 1463 1461 1460 1457 1455 1452 1449 1447 1443 1439 1436 1432 1427 1423 1421 1417 1413 1409 1406 1402 1398 1395 1391
1456 1458 1460 1462 1464 1465 1466 1466 1466 1466 1466 1465 1464 1463 1462 1460 1459 1457 1455 1453 1450 1448 1444 1441 1438 1434 1430 1425 1420 1416 1414 1410 1406 1402 1398 1394 1391 1387
1454 1456 1458 1460 1461 1462 1463 1464 1464 1463 1463 1462 1461 1460 1459 1458 1456 1454 1452 1450 1448 1445 1442 1439 1435 1432 1428 1423 1418 1414 1410 1406 1403 1399 1394 1391 1387 1383
1451 1454 1456 1458 1459 1460 1461 1461 1461 1461 1460 1460 1459 1458 1457 1455 1454 1452 1450 1447 1445 1442 1440 1436 1433 1429 1424 1421 1417 1412 1409 1405 1400 1396 1391 1387 1384 1380
1449 1451 1453 1455 1457 1458 1458 1459 1459 1458 1458 1457 1457 1456 1455 1453 1452 1450 1447 1445 1442 1439 1436 1433 1430 1427 1422 1419 1414 1411 1407 1402 1398 1393 1388 1383 1380 1377
1447 1449 1451 1453 1454 1455 1456 1456 1457 1456 1456 1455 1455 1454 1453 1451 1450 1448 1445 1443 1440 1437 1434 1430 1426 1423 1420 1416 1414 1408 1404 1399 1395 1391 1386 1381 1376 1374
1446 1448 1449 1451 1452 1453 1454 1454 1454 1454 1454 1454 1453 1452 1451 1449 1448 1446 1443 1441 1439 1436 1433 1430 1426 1421 1417 1413 1411 1408 1403 1397 1392 1388 1384 1380 1375 1371
1444 1446 1447 1449 1450 1451 1452 1452 1452 1452 1452 1452 1451 1450 1449 1447 1446 1444 1442 1440 1437 1435 1432 1429 1426 1422 1418 1415 1410 1406 1403 1396 1391 1385 1381 1377 1373 1369
1441 1444 1445 1447 1448 1449 1450 1450 1450 1450 1450 1450 1449 1448 1447 1445 1444 1442 1440 1438 1436 1433 1430 1428 1425 1422 1418 1415 1410 1405 1401 1397 1391 1385 1380 1375 1369 1365
1440 1442 1444 1445 1447 1448 1448 1449 1449 1449 1449 1448 1447 1446 1445 1444 1442 1441 1439 1437 1435 1432 1430 1427 1424 1421 1417 1413 1408 1404 1399 1395 1391 1387 1381 1376 1372 1366
1439 1441 1442 1444 1445 1446 1447 1447 1447 1447 1447 1446 1446 1445 1443 1442 1441 1439 1437 1435 1433 1431 1428 1425 1423 1419 1416 1412 1408 1403 1399 1394 1389 1384 1381 1377 1372 1368